This demonstration page uses our WeatherBlox Daily Observations layout. Learn more.

Hourly Observations for May 28, 2019

Temp ( °F °C ) Dew Point ( °F °C ) Humidity (%) Winds ( mph kmh ) Pressure ( in mb ) Visibility ( mi km ) Precip ( " mm )
12:02 am 00:02 Mostly Cloudy with Thunderstorms 61 16.1 58 14.4 90 90 NNE 18 30 29.7 1006 4 6.43736 0.05 1.27
12:15 am 00:15 Partly Cloudy 61 16.1 58 14.4 90 90 NNE 17 28 29.67 1005 10 16.0934 0.05 1.27
12:50 am 00:50 Mostly Cloudy with Nearby Thunderstorms 61 16 57 14 88 88 NNE 14 22 29.71 1006 10 16.0934 0.05 1.27
12:54 am 00:54 Mostly Cloudy with Nearby Thunderstorms 60 15.6 56 13.3 86 86 ENE 13 20 29.7 1006 10 16.0934 0.05 1.27
1:07 am 01:07 Mostly Cloudy with Nearby Thunderstorms 60 15.6 57 13.9 90 90 N 9 15 29.72 1006 10 16.0934 0.01 0.254
1:15 am 01:15 Cloudy with Light Rain 60 15.6 57 13.9 90 90 NE 10 17 29.72 1006 10 16.0934 0.01 0.254
1:23 am 01:23 Mostly Cloudy 60 15.6 57 13.9 90 90 ENE 6 9 29.73 1007 10 16.0934 0.01 0.254
1:45 am 01:45 Mostly Cloudy 60 15.6 56 13.3 86 86 ENE 13 20 29.69 1005 10 16.0934 0.01 0.254
1:54 am 01:54 Mostly Cloudy 59 15 56 13.3 90 90 NE 8 13 29.67 1005 10 16.0934 0.01 0.254
2:18 am 02:18 Mostly Cloudy 60 15.6 56 13.3 86 86 NE 8 13 29.68 1005 10 16.0934 0 0
2:37 am 02:37 Mostly Cloudy 60 15.6 56 13.3 86 86 E 13 20 29.67 1005 10 16.0934 0 0
2:49 am 02:49 Mostly Cloudy 61 16 55 13 83 83 E 12 19 29.63 1004 10 16.0934 0 0
2:54 am 02:54 Cloudy 59 15 56 13.3 90 90 E 14 22 29.62 1003 10 16.0934 0 0
3:34 am 03:34 Cloudy with Nearby Thunderstorms 59 15 55 12.8 87 87 ENE 8 13 29.66 1004 10 16.0934 0 0.0254
3:51 am 03:51 Cloudy with Nearby Thunderstorms 57 14 55 13 94 94 N 15 24 29.68 1005 6 9.65604 0.04 1.016
3:54 am 03:54 Cloudy with Nearby Thunderstorms 58 14.4 55 12.8 90 90 NE 13 20 29.66 1005 9 14.48406 0.04 1.016
4:04 am 04:04 Cloudy with Nearby Thunderstorms 59 15 54 12.2 83 83 ENE 21 33 29.64 1004 10 16.0934 0.01 0.254
4:11 am 04:11 Cloudy with Thunderstorms 58 14.4 55 12.8 90 90 NE 15 24 29.66 1004 8 12.87472 0.01 0.254
4:29 am 04:29 Cloudy with Heavy Thunderstorms 57 13.9 55 12.8 93 93 NNW 23 37 29.7 1006 4 6.43736 0.06 1.524
4:31 am 04:31 Cloudy with Heavy Thunderstorms 57 13.9 55 12.8 93 93 WNW 24 39 29.73 1007 2.5 4.02335 0.11 2.794
4:33 am 04:33 Cloudy with Heavy Thunderstorms 57 13.9 55 12.8 93 93 NW 25 41 29.74 1007 1.75 2.816345 0.15 3.81
4:43 am 04:43 Cloudy with Heavy Thunderstorms 56 13.3 55 12.8 97 97 N 20 31 29.7 1006 0.75 1.207005 0.62 15.748
4:45 am 04:45 Cloudy with Heavy Thunderstorms 56 13.3 54 12.2 93 93 N 22 35 29.7 1006 1 1.60934 0.67 17.018
4:48 am 04:48 Cloudy with Nearby Thunderstorms 55 13 54 12 94 94 N 17 28 29.7 1006 1.25 2.011675 0.69 17.526
4:54 am 04:54 Cloudy with Nearby Thunderstorms 56 13.3 54 12.2 93 93 N 20 31 29.68 1005 2.5 4.02335 0.75 19.05
5:01 am 05:01 Cloudy with Nearby Thunderstorms 56 13.3 54 12.2 93 93 NNE 24 39 29.68 1005 4 6.43736 0.02 0.508
5:12 am 05:12 Cloudy with Light Rain 56 13.3 54 12.2 93 93 NE 17 28 29.69 1005 4 6.43736 0.07 1.778
5:38 am 05:38 Cloudy with Light Rain 56 13.3 53 11.7 90 90 NE 17 28 29.67 1005 10 16.0934 0.08 2.032
5:54 am 05:54 Cloudy with Heavy Rain 55 12.8 53 11.7 93 93 ENE 20 31 29.65 1004 3 4.82802 0.14 3.556
6:04 am 06:04 Cloudy with Nearby Thunderstorms 55 12.8 53 11.7 93 93 NNE 8 13 29.74 1007 9 14.48406 0.02 0.508
6:32 am 06:32 Cloudy with Thunderstorms 55 12.8 53 11.7 93 93 ENE 18 30 29.68 1005 8 12.87472 0.07 1.778
6:54 am 06:54 Cloudy with Nearby Thunderstorms 56 13.3 53 11.7 90 90 N 17 28 29.73 1007 6 9.65604 0.15 3.81
7:05 am 07:05 Cloudy with Light Rain 55 12.8 53 11.7 93 93 NNE 18 30 29.73 1007 6 9.65604 0.04 1.016
7:33 am 07:33 Mostly Cloudy 55 12.8 53 11.7 93 93 NE 16 26 29.72 1006 10 16.0934 0.04 1.016
7:54 am 07:54 Cloudy 56 13.3 53 11.7 90 90 NE 15 24 29.69 1005 10 16.0934 0.04 1.016
8:23 am 08:23 Cloudy 57 13.9 54 12.2 90 90 E 12 19 29.7 1006 10 16.0934 0 0
8:54 am 08:54 Mostly Cloudy 58 14.4 54 12.2 87 87 E 15 24 29.67 1005 10 16.0934 0 0
9:36 am 09:36 Partly Cloudy 62 16.7 56 13.3 80 80 ENE 14 22 29.67 1005 10 16.0934 0 0
9:49 am 09:49 Mostly Cloudy 63 17 55 13 77 77 E 16 26 29.66 1004 10 16.0934 0 0
9:54 am 09:54 Mostly Cloudy 63 17.2 56 13.3 78 78 E 15 24 29.66 1004 10 16.0934 0 0
10:40 am 10:40 Mostly Cloudy 64 17.8 56 13.3 75 75 E 17 28 29.65 1004 10 16.0934 0 0
10:54 am 10:54 Mostly Cloudy 63 17.2 57 13.9 81 81 ENE 15 24 29.65 1004 10 16.0934 0 0
11:07 am 11:07 Cloudy 65 18.3 57 13.9 76 76 ESE 13 20 29.67 1005 10 16.0934 0 0
11:14 am 11:14 Cloudy 65 18.3 57 13.9 76 76 E 14 22 29.66 1005 10 16.0934 0 0
11:54 am 11:54 Mostly Cloudy 63 17.2 57 13.9 81 81 ENE 15 24 29.63 1003 10 16.0934 0 0
12:54 pm 12:54 Cloudy 64 17.8 58 14.4 81 81 ENE 17 28 29.65 1004 10 16.0934 0 0.0254
1:00 pm 13:00 Cloudy 64 17.8 58 14.4 81 81 ENE 15 24 29.63 1003 10 16.0934 0 0
1:54 pm 13:54 Cloudy 65 18.3 59 15 81 81 NNE 17 28 29.6 1002 10 16.0934 0 0
2:54 pm 14:54 Cloudy 63 17.2 57 13.9 81 81 N 12 19 29.66 1004 10 16.0934 0 0
3:54 pm 15:54 Cloudy 61 16.1 57 13.9 87 87 NNE 15 24 29.62 1003 10 16.0934 0 0
4:10 pm 16:10 Cloudy with Mist and Fog 60 15.6 56 13.3 86 86 NNE 18 30 29.63 1003 6 9.65604 0 0
4:54 pm 16:54 Cloudy with Mist and Fog 60 15.6 57 13.9 90 90 NNE 15 24 29.63 1003 2.5 4.02335 0 0
5:17 pm 17:17 Cloudy with Mist and Fog 59 15 57 13.9 93 93 NNE 20 31 29.62 1003 4 6.43736 0 0
5:54 pm 17:54 Cloudy 60 15.6 56 13.3 86 86 NNE 17 28 29.6 1002 9 14.48406 0 0
6:54 pm 18:54 Cloudy 60 15.6 56 13.3 86 86 NE 12 19 29.63 1004 10 16.0934 0 0
7:54 pm 19:54 Cloudy 59 15 56 13.3 90 90 NNE 13 20 29.64 1004 8 12.87472 0 0
8:34 pm 20:34 Cloudy with Nearby Thunderstorms 59 15 56 13.3 90 90 NE 14 22 29.61 1003 10 16.0934 0 0.0254
8:48 pm 20:48 Cloudy with Light Rain 59 15 55 13 88 88 E 12 19 29.62 1003 10 16.0934 0 0.0254
8:54 pm 20:54 Cloudy with Light Rain 59 15 56 13.3 90 90 ENE 15 24 29.6 1002 9 14.48406 0 0.0254
9:28 pm 21:28 Mostly Cloudy 59 15 56 13.3 90 90 ENE 10 17 29.59 1002 10 16.0934 0.01 0.254
9:54 pm 21:54 Cloudy 60 15.6 56 13.3 86 86 WNW 12 19 29.66 1005 10 16.0934 0.01 0.254
10:54 pm 22:54 Cloudy 59 15 56 13.3 90 90 NNE 12 19 29.66 1005 10 16.0934 0 0
11:01 pm 23:01 Cloudy 59 15 56 13.3 90 90 NE 10 17 29.67 1005 10 16.0934 0 0
11:49 pm 23:49 Cloudy 59 15 55 13 88 88 NNE 5 7 29.68 1005 10 16.0934 0 0
11:54 pm 23:54 Cloudy 59 15 56 13.3 90 90 NNE 7 11 29.67 1005 10 16.0934 0 0

Powered by AerisWeather